Nantucket, MA

4:56 AM EDT on June 25, 2017 (GMT -0400)
Nantucket Memorial

Weather History for KACK - August, 2013

Change the Weather History Date:

Monday, August 19, 2013

  Actual Average Record
Temperature  
Mean Temperature 65 °F -  
Max Temperature 73 °F 74 °F 82 °F (1959)
Min Temperature 57 °F 59 °F 46 °F (1968)
Growing Degree Days 15 (Base 50)    
Moisture  
Dew Point 62 °F    
Average Humidity 86    
Maximum Humidity 93    
Minimum Humidity 73    
Precipitation  
Precipitation 0.14 in - - ()
Sea Level Pressure  
Sea Level Pressure 30.03 in    
Wind  
Wind Speed 8 mph (WSW)    
Max Wind Speed 15 mph    
Max Gust Speed -    
Visibility 10 miles    
Events Rain    
Averages and records for this station are not official NWS values.
T = Trace of Precipitation, MM = Missing Value Source: NWS Daily Summary

Daily Weather History Graph

Daily Weather History Graph

Search for Another Location

Airport or City:

Trip Planner

Search our weather history database for the weather conditions in past years. The results will help you decide how hot, cold, wet, or windy it might be!

Date:

Astronomy

Aug. 19, 2013 Rise Set
Actual Time 5:53 AM EDT 7:33 PM EDT
Civil Twilight 5:24 AM EDT 8:02 PM EDT
Nautical Twilight 4:48 AM EDT 8:37 PM EDT
Astronomical Twilight 4:11 AM EDT 9:15 PM EDT
Moon 6:21 PM EDT (8/19) 4:08 AM EDT (8/19)
Length of Visible Light 14h 37m
Length of Day
13h 39m
Waxing Gibbous, 97% of the Moon is Illuminated
Aug 19
Waxing Gibbous
Aug 20
Full
Aug 28
Last Quarter
Sep 5
New
Sep 12
First Quarter

Hourly Weather History & Observations

Time (EDT) Temp. Dew Point Humidity Pressure Visibility Wind Dir Wind Speed Gust Speed Precip Events Conditions
12:53 AM 59.0 °F 57.0 °F 93% 30.07 in 10.0 mi ESE 3.5 mph - 0.13 in Rain Light Rain
1:53 AM 59.0 °F 57.0 °F 93% 30.06 in 10.0 mi North 4.6 mph - 0.01 in   Scattered Clouds
2:53 AM 60.1 °F 57.0 °F 90% 30.06 in 10.0 mi North 3.5 mph - 0.00 in   Clear
3:53 AM 59.0 °F 57.0 °F 93% 30.06 in 10.0 mi Calm Calm - N/A   Clear
4:53 AM 59.0 °F 55.9 °F 90% 30.08 in 10.0 mi West 4.6 mph - N/A   Clear
5:53 AM 57.0 °F 55.0 °F 93% 30.07 in 10.0 mi West 5.8 mph - N/A   Clear
6:53 AM 63.0 °F 59.0 °F 87% 30.07 in 10.0 mi WSW 8.1 mph - N/A   Clear
7:53 AM 64.9 °F 60.1 °F 84% 30.06 in 10.0 mi SW 11.5 mph - N/A   Clear
8:53 AM 68.0 °F 62.1 °F 81% 30.06 in 10.0 mi WSW 13.8 mph - N/A   Clear
9:53 AM 70.0 °F 61.0 °F 73% 30.05 in 10.0 mi WSW 12.7 mph - N/A   Clear
10:53 AM 72.0 °F 64.0 °F 76% 30.03 in 10.0 mi West 11.5 mph - N/A   Clear
11:53 AM 72.0 °F 64.9 °F 78% 30.03 in 10.0 mi West 13.8 mph - N/A   Clear
12:53 PM 71.1 °F 66.0 °F 84% 30.02 in 10.0 mi West 10.4 mph - N/A   Clear
1:53 PM 73.0 °F 64.9 °F 76% 30.01 in 10.0 mi WSW 12.7 mph - N/A   Clear
2:53 PM 71.1 °F 64.0 °F 78% 30.00 in 10.0 mi WSW 13.8 mph - N/A   Clear
3:53 PM 70.0 °F 64.0 °F 81% 29.99 in 10.0 mi WSW 13.8 mph - N/A   Clear
4:53 PM 70.0 °F 64.0 °F 81% 29.99 in 10.0 mi WSW 12.7 mph - N/A   Clear
5:53 PM 69.1 °F 64.0 °F 84% 29.99 in 9.0 mi WSW 13.8 mph - N/A   Clear
6:53 PM 68.0 °F 64.0 °F 87% 30.00 in 8.0 mi West 15.0 mph - N/A   Clear
7:53 PM 68.0 °F 64.0 °F 87% 30.01 in 9.0 mi West 11.5 mph - N/A   Clear
8:53 PM 68.0 °F 64.9 °F 90% 30.01 in 9.0 mi West 12.7 mph - N/A   Clear
9:53 PM 68.0 °F 64.9 °F 90% 30.01 in 9.0 mi West 11.5 mph - N/A   Clear
10:53 PM 66.9 °F 64.9 °F 93% 30.01 in 8.0 mi WSW 9.2 mph - N/A   Clear
11:53 PM 68.0 °F 64.9 °F 90% 30.01 in 10.0 mi West 8.1 mph - N/A   Clear